Location: Celina Division
(33.3022°N, 96.7580°W)
Time: 19:13:55
(UTC+00:00)

H-2A R/B (2) - Pass Details

Date: 28 June 2022
Orbit: 428 x 34396 km, 28.9° (Epoch: 07 August)

Event Time Altitude Azimuth Distance (km) Brightness Sun altitude
Rises 05:33:59 0° 138° (SE) 24,392 9.2 -31.9°
Reaches altitude 10° 07:22:41 10° 134° (SE) 35,704 10.1 -32.1°
Maximum altitude 12:55:10 46° 139° (SE) 17,500 9.3 17.4°
Drops below altitude 10° 13:46:22 10° 86° (E) 8,175 9.0 27.8°
Sets 13:50:15 0° 80° (E) 8,020 8.5 28.6°
